Meath Environmental Platform

Observations for Trim Market St

Time AQI Temp °C Hum % Pres Pa CO μg/m³ H₂S μg/m³ NO μg/m³ NO₂ μg/m³ O₃ μg/m³ SO₂ μg/m³ PM1 μg/m³ PM2.5 μg/m³ PM10 μg/m³
Friday 21 August 2026
22:11 2 14 66 57,439 0.2 0 2.41 11.14 56.51 0 1.43 3.73 5.58
22:09 2 14.1 66 57,474 0.21 0 3.79 14.8 50.21 0 1.43 3.25 5.57
22:08 2 14.1 66 57,494 0.28 0 3.86 25.65 38.8 0 1.43 3.26 6.22
22:07 2 14.2 66 57,510 0.46 0 4.6 33.69 22.42 0 2.85 4.25 6.88
22:06 2 14.2 66 57,526 0.23 0 4.24 13.07 51.38 0 1.43 2.77 4.92
22:03 2 14.3 65 57,560 0.17 0 3.66 11.26 54.48 0 1.43 3.28 4.91
21:57 2 14.5 65 57,625 0.17 0 1.85 8.36 67.02 0 1.43 2.8 4.24
21:53 2 14.7 65 57,656 0.17 0 3.41 11.09 57.34 0 1.43 2.81 4.23
21:51 2 14.8 64 57,671 0.17 0 1.83 14 50.94 0 0.71 2.33 4.23
21:48 2 14.8 64 57,681 0.15 0 1.94 8.75 63.96 0 1.43 2.83 4.23
21:47 2 14.9 64 57,686 0.15 0 2.43 9.71 58.14 0 0.71 1.84 2.9
21:46 2 14.9 64 57,689 0.17 0 2.5 9.71 58.17 0 1.43 2.84 5.54
21:45 2 15 64 57,694 0.18 0 2.16 11.99 57.19 0 0.71 2.84 4.22
21:44 2 15 64 57,697 0.2 0 2.2 16.46 51.51 0 0.71 2.84 4.22
21:43 2 15 64 57,701 0.21 0 1.87 18.3 49.54 0 1.43 3.34 6.2
21:42 2 15 64 57,705 0.18 0 1.95 11.59 56.59 0 2.14 4.33 6.87
21:41 2 15.1 64 57,709 0.19 0 1.78 11.61 57.83 0 0.71 2.35 3.55
21:40 2 15.1 64 57,713 0.17 0 1.76 17.25 50.31 0 0.71 2.36 4.21
21:39 2 15.1 64 57,716 0.18 0 1.69 19.7 51.6 0 1.43 2.85 5.54
21:38 2 15.2 64 57,719 0.22 0 1.71 18.02 49.97 0 0 2.36 5.54